Content
SEND FEEDBACK

Daily
Averages
Monthly
Summary
United States of America

HOTCHKISS, COLORADO


Home > North America > United States > Colorado
Elevation: 6011 feet     Latitude: 38 51N     Longitude: 107 35W

WEATHER
 
SELECT A DAY
Number of Records: 61,744;   Date Range: 2/9/12 - 9/29/14
 
SHARE

PRINT THIS DATA

[ ← Previous Day ]
WEATHER ALMANAC - JANUARY 31, 2013
[ Next Day → ]
[ °C ]   °F
Weather ElementAverageHighLow
Temperature34.4 °F46.4 °F (3:15 pm)26.4 °F (5:35 am)
Dewpoint25.8 °F29.7 °F (8:15 pm)21.2 °F (3:55 pm)
Humidity73.6 %93 % (5:15 am)37 % (3:55 pm)
Barometer30.27 in30.36 in (9:55 am)30.19 in (12:35 am)
Wind Speed1.8 mph6.9 mph (12:35 pm)
Weather ElementAverage
Visibility10 mi
Wind DirectionNNE (36.9 °)

Weather ElementTotal
Precipitation---
Heating Degree Days28.6 (Base 65)
Averaged from 71 records on January 31, 2013
WEATHER CONDITIONS BREAKOUT
WIND DIRECTION BREAKOUT
WEATHER BY HOUR - JANUARY 31, 2013
[ °C ]   °F
Local TimeTemperatureDewpointHumidityBarometerVisibilityWind DirectionWind SpeedGust SpeedPrecipitationEventsConditions
12:35 AM29.8 °F24.6 °F81 %30.19 in10.0 miCalmOvercast
12:55 AM29.3 °F24.4 °F82 %30.19 in10.0 miESE (120°)3.5 mphOvercast
1:15 AM29.3 °F24.6 °F83 %30.19 in10.0 miCalmOvercast
1:35 AM29.3 °F25.2 °F85 %30.19 in10.0 miCalmOvercast
1:55 AM29.3 °F25.2 °F85 %30.19 in10.0 miCalmOvercast
2:15 AM28.6 °F24.8 °F86 %30.20 in10.0 miCalmOvercast
2:35 AM28.9 °F25.3 °F86 %30.21 in10.0 miCalmOvercast
2:55 AM29.3 °F24.8 °F83 %30.21 in10.0 miCalmOvercast
3:15 AM29.7 °F25.3 °F84 %30.22 in10.0 miNE (50°)3.5 mphOvercast
3:35 AM29.8 °F24.6 °F81 %30.21 in10.0 miCalmOvercast
3:55 AM28.6 °F25.3 °F88 %30.22 in10.0 miWSW (240°)3.5 mphOvercast
4:15 AM28.2 °F25.7 °F90 %30.22 in10.0 miCalmOvercast
4:35 AM28.0 °F25.3 °F90 %30.23 in10.0 miCalmOvercast
4:55 AM27.5 °F25.0 °F90 %30.24 in10.0 miESE (120°)4.6 mphOvercast
5:15 AM26.6 °F24.8 °F93 %30.24 in10.0 miCalmOvercast
5:35 AM26.4 °F24.4 °F92 %30.25 in10.0 miCalmMostly Cloudy
5:55 AM26.4 °F24.4 °F92 %30.25 in10.0 miCalmScattered Clouds
6:15 AM27.1 °F24.6 °F90 %30.26 in10.0 miCalmMostly Cloudy
6:35 AM28.2 °F24.3 °F85 %30.26 in10.0 miCalmOvercast
6:55 AM27.5 °F24.1 °F87 %30.26 in10.0 miESE (110°)4.6 mphOvercast
7:15 AM26.6 °F24.3 °F91 %30.28 in10.0 miCalmOvercast
7:35 AM26.6 °F23.9 °F90 %30.29 in10.0 miCalmOvercast
7:55 AM27.1 °F24.4 °F90 %30.30 in10.0 miWSW (240°)3.5 mphOvercast
8:15 AM27.5 °F24.6 °F89 %30.31 in10.0 miCalmOvercast
8:35 AM28.4 °F25.0 °F87 %30.32 in10.0 miCalmOvercast
8:55 AM29.8 °F24.8 °F81 %30.33 in10.0 miCalmMostly Cloudy
9:15 AM31.1 °F25.2 °F79 %30.34 in10.0 miCalmMostly Cloudy
9:35 AM30.9 °F24.8 °F78 %30.35 in10.0 miCalmOvercast
9:55 AM31.6 °F25.2 °F77 %30.36 in10.0 miCalmOvercast
10:15 AM31.6 °F25.0 °F76 %30.36 in10.0 miCalmOvercast
10:35 AM32.4 °F25.9 °F77 %30.36 in10.0 miCalmOvercast
10:55 AM33.6 °F26.1 °F74 %30.36 in10.0 miCalmOvercast
11:15 AM35.8 °F28.0 °F73 %30.36 in10.0 miNE (50°)3.5 mphMostly Cloudy
11:35 AM37.8 °F28.9 °F71 %30.35 in10.0 miENE (60°)4.6 mphClear
11:55 AM38.5 °F28.8 °F68 %30.33 in10.0 miENE (70°)5.8 mphClear
12:15 PM40.3 °F29.5 °F65 %30.31 in10.0 miEast (80°)5.8 mphClear
12:35 PM42.1 °F27.7 °F57 %30.30 in10.0 miENE (60°)6.9 mphClear
12:55 PM43.0 °F27.9 °F55 %30.29 in10.0 miEast (100°)5.8 mphClear
1:15 PM43.9 °F28.0 °F54 %30.28 in10.0 miESE (110°)4.6 mphClear
1:35 PM44.2 °F25.7 °F48 %30.27 in10.0 miESE (110°)3.5 mphClear
1:55 PM45.0 °F26.4 °F48 %30.26 in10.0 miEast (80°)4.6 mphClear
2:15 PM45.5 °F24.1 °F43 %30.26 in10.0 miENE (60°)3.5 mphClear
2:35 PM45.9 °F24.4 °F43 %30.25 in10.0 miENE (60°)4.6 mphScattered Clouds
2:55 PM46.0 °F22.6 °F40 %30.25 in10.0 miENE (70°)3.5 mphMostly Cloudy
3:15 PM46.4 °F22.8 °F39 %30.24 in10.0 miCalmScattered Clouds
3:35 PM46.2 °F22.5 °F39 %30.24 in10.0 miNE (50°)5.8 mphClear
3:55 PM46.0 °F21.2 °F37 %30.24 in10.0 miCalmClear
4:15 PM46.2 °F22.5 °F39 %30.24 in10.0 miEast (90°)3.5 mphClear
4:35 PM46.0 °F23.0 °F40 %30.24 in10.0 miEast (80°)3.5 mphClear
4:55 PM45.5 °F22.5 °F40 %30.24 in10.0 miSE (130°)3.5 mphScattered Clouds
5:15 PM44.6 °F24.4 °F45 %30.25 in10.0 miCalmScattered Clouds
5:35 PM43.7 °F24.4 °F47 %30.25 in10.0 miCalmClear
5:55 PM41.4 °F27.1 °F57 %30.26 in10.0 miCalmClear
6:15 PM41.0 °F24.6 °F52 %30.27 in10.0 miCalmScattered Clouds
6:35 PM37.8 °F27.7 °F67 %30.27 in10.0 miSSW (200°)4.6 mphOvercast
6:55 PM37.0 °F29.5 °F74 %30.28 in10.0 miCalmOvercast
7:15 PM34.7 °F29.1 °F80 %30.28 in10.0 miCalmScattered Clouds
7:35 PM33.8 °F28.2 °F80 %30.28 in10.0 miENE (60°)3.5 mphScattered Clouds
7:55 PM34.2 °F29.3 °F82 %30.28 in10.0 miEast (100°)3.5 mphClear
8:15 PM33.6 °F29.7 °F85 %30.30 in10.0 miCalmClear
8:35 PM33.3 °F29.3 °F85 %30.30 in10.0 miCalmScattered Clouds
8:55 PM33.3 °F29.3 °F85 %30.30 in10.0 miCalmScattered Clouds
9:15 PM32.4 °F29.1 °F88 %30.31 in10.0 miCalmScattered Clouds
9:35 PM31.8 °F28.0 °F86 %30.30 in10.0 miNNE (30°)3.5 mphScattered Clouds
9:55 PM30.9 °F27.5 °F87 %30.31 in10.0 miCalmClear
10:15 PM31.5 °F27.3 °F85 %30.31 in10.0 miCalmClear
10:35 PM30.9 °F27.1 °F86 %30.31 in10.0 miCalmClear
10:55 PM31.5 °F27.5 °F85 %30.31 in10.0 miNNE (20°)4.6 mphClear
11:15 PM30.6 °F26.6 °F85 %30.30 in10.0 miNE (40°)5.8 mphClear
11:35 PM31.1 °F27.5 °F87 %30.30 in10.0 miNNE (30°)6.9 mphClear
11:55 PM32.2 °F25.0 °F75 %30.30 in10.0 miCalmClear
Hourly data recorded from KAJZ, located miles away from Hotchkiss, Colorado







STORIES FROM OUR PARTNERS